TimeEST,TemperatureF,Dew PointF,Humidity,Sea Level PressureIn,VisibilityMPH,Wind Direction,Wind SpeedMPH,Gust SpeedMPH,PrecipitationIn,Events,Conditions,WindDirDegrees,DateUTC
12:04 AM,12.2,6.8,79,30.16,10.0,North,15.0,-,N/A,,Mostly Cloudy,350,2013-01-24 05:04:00
12:53 AM,10.0,5.0,80,30.25,10.0,North,11.5,-,N/A,,Clear,350,2013-01-24 05:53:00
1:53 AM,6.1,3.0,87,30.29,10.0,NNW,9.2,-,N/A,,Clear,340,2013-01-24 06:53:00
2:53 AM,5.0,1.9,87,30.34,10.0,NNW,9.2,-,N/A,,Clear,330,2013-01-24 07:53:00
3:53 AM,5.0,1.9,87,30.38,10.0,North,6.9,-,N/A,,Clear,350,2013-01-24 08:53:00
4:53 AM,3.0,-0.0,87,30.41,7.0,NNW,4.6,-,N/A,,Clear,340,2013-01-24 09:53:00
5:53 AM,1.9,-0.0,91,30.46,4.0,North,6.9,-,N/A,,Clear,360,2013-01-24 10:53:00
6:53 AM,1.0,-2.0,87,30.51,10.0,North,6.9,-,N/A,,Clear,350,2013-01-24 11:53:00
7:53 AM,1.9,-0.9,88,30.55,10.0,North,4.6,-,N/A,,Clear,360,2013-01-24 12:53:00
8:53 AM,3.0,-0.0,87,30.57,10.0,North,4.6,-,N/A,,Clear,360,2013-01-24 13:53:00
9:53 AM,8.1,3.9,83,30.62,10.0,NNE,4.6,-,N/A,,Clear,30,2013-01-24 14:53:00
10:53 AM,12.0,3.9,70,30.64,10.0,NE,3.5,-,0.00,,Clear,50,2013-01-24 15:53:00
11:53 AM,15.1,-0.9,49,30.64,10.0,NE,5.8,-,N/A,,Clear,40,2013-01-24 16:53:00
12:53 PM,15.1,-0.0,51,30.63,10.0,Calm,Calm,-,N/A,,Clear,0,2013-01-24 17:53:00
1:53 PM,15.1,-0.9,49,30.62,10.0,Calm,Calm,-,N/A,,Clear,0,2013-01-24 18:53:00
2:53 PM,17.1,-2.9,41,30.61,10.0,Calm,Calm,-,N/A,,Clear,0,2013-01-24 19:53:00
3:53 PM,16.0,-2.0,45,30.61,10.0,Calm,Calm,-,N/A,,Clear,0,2013-01-24 20:53:00
4:53 PM,16.0,-2.0,45,30.60,10.0,Calm,Calm,-,N/A,,Clear,0,2013-01-24 21:53:00
5:53 PM,15.1,-0.0,51,30.60,10.0,Calm,Calm,-,N/A,,Clear,0,2013-01-24 22:53:00
6:53 PM,12.9,-0.0,56,30.59,10.0,Calm,Calm,-,N/A,,Clear,0,2013-01-24 23:53:00
7:53 PM,12.9,1.9,62,30.57,10.0,Calm,Calm,-,N/A,,Clear,0,2013-01-25 00:53:00
8:53 PM,14.0,1.0,56,30.55,10.0,SE,3.5,-,N/A,,Clear,130,2013-01-25 01:53:00
9:53 PM,14.0,1.0,56,30.54,10.0,ESE,3.5,-,N/A,,Scattered Clouds,120,2013-01-25 02:53:00
10:53 PM,14.0,1.0,56,30.52,10.0,East,3.5,-,N/A,,Overcast,100,2013-01-25 03:53:00
11:53 PM,14.0,1.9,59,30.49,10.0,ESE,4.6,-,N/A,,Overcast,120,2013-01-25 04:53:00